[[{"header":{"parameterUnit":"m.s-1","parameterCategory":1,"la1":30.2991,"la2":30.254,"lo1":-89.0895,"lo2":-89.0444,"dy":0.0017,"dx":0.0017,"nx":28,"ny":28,"refTime":"2025-12-10T03:00:00:Z","depth":0,"parameterNumber":2,"parameterNumberName":"U-component_of_WINDS"},"data":[0,0,0,0,0,0,0,0,0,0,0,0,0,0,0,0,0,0,0,0,0,0,0,0,0,0,0,0,0,0,0,0,0,0,0,0,0,0,0,0,0,0,0,0,0,0,0,0,0,0,0,0,0,0,0,0,0,0,4.8226,4.8229,0,4.8556,4.856,4.8564,4.8648,4.8645,4.8643,4.8641,4.8982,4.8993,4.9004,0,0,0,0,0,0,0,0,0,0,0,0,0,4.7668,4.7678,4.8225,4.823,4.8234,4.8556,4.856,4.8565,4.8648,4.8645,4.8643,4.864,4.8979,4.8992,4.9005,0,0,0,0,0,0,0,0,0,0,0,0,0,4.7945,4.7681,4.8225,4.8314,4.8325,4.8555,4.8561,4.8566,4.8648,4.8645,4.8642,4.8639,4.8974,4.899,4.9007,4.9172,0,0,4.9057,4.9065,0,0,0,0,0,0,0,0,4.793,4.7966,4.8297,4.8308,4.8321,4.8557,4.8489,4.8769,4.8649,4.8526,4.8641,4.8638,4.8844,4.8871,4.894,4.9188,4.9203,4.9059,4.9069,4.9076,4.9081,0,0,0,0,0,0,0,4.791,4.7952,4.8356,4.8301,4.8316,4.8338,4.8374,4.8542,4.8698,4.8536,4.8543,4.8581,4.885,4.8924,4.8948,4.9208,4.9058,4.9073,4.9083,4.909,4.961,4.9613,0,0,0,0,0,0,4.7875,4.7935,4.8346,4.8366,4.8114,4.8351,4.8391,4.8485,4.8697,4.8726,4.8583,4.8584,4.8897,4.8929,4.8961,4.917,4.9076,4.9091,4.9101,4.9606,4.961,4.9615,0,0,0,0,0,0,4.7863,4.7911,4.8333,4.8153,4.8208,4.8364,4.8468,4.8493,4.8567,4.8732,4.8761,4.863,4.8896,4.8937,4.9119,4.9183,4.9099,4.9114,4.9601,4.9607,4.9612,4.9587,0,0,0,0,0,0,4.7847,4.7906,4.797,4.8154,4.8218,4.8485,4.8472,4.8502,4.8595,4.8599,4.8784,4.8811,4.8896,4.9094,4.9135,4.9204,4.9127,4.9596,4.9604,4.9611,4.9583,4.9591,4.9599,0,0,0,0,0,4.7826,4.795,4.7973,4.8022,4.8301,4.8488,4.8525,4.8619,4.86,4.8666,4.8772,4.8806,4.9168,4.9112,4.9159,4.9234,4.9593,4.9602,4.961,4.958,4.959,4.9598,0,0,0,0,0,0,4.7771,4.7976,4.8003,4.819,4.8321,4.8502,4.8588,4.8627,4.8767,4.8765,4.8877,4.8918,4.9092,4.9181,4.9114,4.9405,4.9381,4.9399,4.9341,4.9352,4.936,4.9336,4.9141,0,0,0,0,0,4.778,4.7914,4.8087,4.8235,4.8299,4.8432,4.8517,4.8579,4.8719,4.8775,4.8895,4.903,4.9175,4.9268,4.9411,4.9596,4.9638,4.967,4.9678,4.9683,4.9699,4.9804,4.9821,4.9643,4.9643,4.9643,0,0,4.7801,4.7929,4.8008,4.8227,4.8335,4.8473,4.8478,4.8623,4.8727,4.8798,4.8977,4.9069,4.9228,4.9412,4.9499,4.9491,4.9757,4.9694,4.9698,4.9711,4.9815,4.9832,4.9847,4.9649,4.9648,4.9647,0,0,4.791,4.802,4.8156,4.8265,4.8429,4.8516,4.8548,4.8724,4.8788,4.8969,4.9025,4.915,4.9397,4.9508,4.9597,4.9747,4.9784,4.979,4.9831,4.9933,4.9947,4.996,5.0015,5.0033,4.9804,4.9804,4.9804,0,4.7916,4.8125,4.8221,4.8364,4.8459,4.8528,4.8668,4.8768,4.8971,4.9035,4.9023,4.9335,4.9446,4.9658,4.9694,4.9764,4.9805,4.977,4.9937,4.9951,4.9965,5.0018,5.0039,4.9804,4.9804,4.9804,4.9804,0,4.8124,4.8268,4.8359,4.8552,4.8657,4.8797,4.8915,4.901,4.9062,4.9151,4.9335,4.9471,4.9643,4.9697,4.975,4.9917,4.9907,4.9914,4.9892,4.998,5.0032,5.0054,4.9804,4.9804,4.9804,4.9804,0,0,4.821,4.8453,4.8485,4.8574,4.8759,4.8873,4.9016,4.9183,4.9263,4.94,4.9524,4.9731,4.9739,4.9839,4.9905,4.9994,5.0106,4.9991,4.9996,5.0009,5.03,5.0294,5.0317,5.013,5.0134,5.0138,5.0287,0,4.8343,4.8601,4.8692,4.8905,4.904,4.9107,4.9232,4.936,4.9447,4.9574,4.967,4.9816,4.9815,4.9876,4.9967,5.0072,5.0166,5.0063,5.0248,5.0253,5.0208,5.0344,5.0339,5.0474,5.0308,5.0312,5.0314,0,4.8534,4.8672,4.8899,4.9068,4.9128,4.9239,4.9399,4.952,4.9667,4.9723,4.9835,4.9894,5.0048,5.0014,5.0228,5.0156,5.0237,5.03,5.0308,5.033,5.029,5.0372,5.0519,5.0539,5.0347,5.0345,5.0342,0,4.8575,4.8818,4.8986,4.9059,4.926,4.9337,4.9424,4.9567,4.9662,4.9802,4.9865,5.0021,5.0107,5.0227,5.0327,5.0293,5.0532,5.0507,5.0585,5.0582,5.0634,5.063,5.0797,5.0682,5.0682,5.0682,5.0681,0,4.8716,4.8852,4.9007,4.911,4.9265,4.9368,4.9519,4.961,4.9737,4.986,4.9927,5.0041,5.0165,5.0295,5.0374,5.054,5.0578,5.0629,5.0649,5.0624,5.0618,5.068,5.0674,5.0687,5.0686,5.0685,5.0684,0,4.8789,4.8898,4.9085,4.926,4.9307,4.9413,4.9563,4.9667,4.9755,4.991,4.9952,5.0092,5.0248,5.0359,5.0561,5.0614,5.0793,5.0811,5.0744,5.0754,5.0826,5.0818,5.1042,5.1077,5.0936,5.0937,5.0938,0,4.8873,4.898,4.9165,4.9251,4.9339,4.9477,4.9574,4.9679,4.9777,4.9951,5.0034,5.0194,5.0329,5.0577,5.0697,5.0852,5.0875,5.0943,5.0899,5.0871,5.0879,5.0872,5.0883,5.095,5.0951,5.0952,5.0952,0,4.9011,4.9059,4.9195,4.9351,4.9463,4.9591,4.9719,4.9787,4.9914,5.0021,5.0182,5.0286,5.0492,5.0651,5.0818,5.0909,5.0953,5.0964,5.0991,5.0968,5.0925,5.0951,5.0763,5.096,5.0959,5.0958,5.0958,5.0958,4.9094,4.9192,4.9337,4.9487,4.9594,4.9712,4.9818,4.9919,5.0055,5.023,5.0283,5.045,5.0594,5.0822,5.0915,5.1048,5.1044,5.1082,5.1093,5.1101,5.1101,5.0902,5.1079,5.1079,5.1078,5.1078,5.1078,0,4.9237,4.9333,4.9469,4.9646,4.9764,4.9793,4.9936,5.0033,5.0179,5.0309,5.044,5.0624,5.0779,5.0911,5.1072,5.1152,5.1177,5.1191,5.1188,5.1208,5.1094,5.1056,5.1169,5.1169,5.1169,5.1169,5.1169,5.1169,4.9325,4.9492,4.9557,4.9779,4.9875,5.0039,5.0118,5.0228,5.0332,5.0535,5.0664,5.0748,5.0879,5.105,5.1193,5.1228,5.1285,5.1295,5.1335,5.1226,5.1216,5.1206,5.1171,5.1306,5.1306,5.1438,5.1439,5.144]},{"header":{"parameterUnit":"m.s-1","parameterCategory":1,"la1":30.2991,"la2":30.254,"lo1":-89.0895,"lo2":-89.0444,"dy":0.0017,"dx":0.0017,"nx":28,"ny":28,"refTime":"2025-12-10T03:00:00:Z","depth":0,"parameterNumber":3,"parameterNumberName":"V-component_of_WINDS"},"data":[0,0,0,0,0,0,0,0,0,0,0,0,0,0,0,0,0,0,0,0,0,0,0,0,0,0,0,0,0,0,0,0,0,0,0,0,0,0,0,0,0,0,0,0,0,0,0,0,0,0,0,0,0,0,0,0,0,0,-0.8129,-0.813,0,-0.8168,-0.8168,-0.8169,-0.816,-0.8159,-0.8158,-0.8158,-0.8195,-0.8197,-0.8199,0,0,0,0,0,0,0,0,0,0,0,0,0,-0.8048,-0.805,-0.8129,-0.813,-0.813,-0.8168,-0.8168,-0.8169,-0.816,-0.8159,-0.8158,-0.8157,-0.8195,-0.8197,-0.8199,0,0,0,0,0,0,0,0,0,0,0,0,0,-0.8085,-0.805,-0.8129,-0.8131,-0.8131,-0.8168,-0.8168,-0.8169,-0.816,-0.8159,-0.8158,-0.8157,-0.8194,-0.8197,-0.8199,-0.8237,0,0,-0.8207,-0.8208,0,0,0,0,0,0,0,0,-0.8083,-0.8088,-0.813,-0.8131,-0.8131,-0.8158,-0.8154,-0.8192,-0.816,-0.8149,-0.8158,-0.8156,-0.8184,-0.8187,-0.8197,-0.8238,-0.824,-0.8207,-0.8209,-0.821,-0.821,0,0,0,0,0,0,0,-0.808,-0.8086,-0.8145,-0.813,-0.8131,-0.8129,-0.8133,-0.8161,-0.8172,-0.815,-0.8149,-0.8154,-0.8184,-0.8194,-0.8197,-0.8241,-0.8207,-0.8209,-0.8211,-0.8212,-0.8317,-0.8318,0,0,0,0,0,0,-0.8077,-0.8084,-0.8143,-0.8146,-0.8104,-0.8132,-0.8136,-0.815,-0.8172,-0.8174,-0.8155,-0.8154,-0.819,-0.8195,-0.8199,-0.8245,-0.821,-0.8212,-0.8213,-0.8316,-0.8318,-0.8319,0,0,0,0,0,0,-0.8076,-0.8083,-0.8142,-0.8115,-0.8122,-0.8134,-0.815,-0.8152,-0.8162,-0.8176,-0.8177,-0.8164,-0.819,-0.8195,-0.8228,-0.8246,-0.8213,-0.8215,-0.8314,-0.8316,-0.8318,-0.8338,0,0,0,0,0,0,-0.8073,-0.8082,-0.8096,-0.8115,-0.8124,-0.817,-0.8152,-0.8153,-0.8167,-0.8165,-0.8184,-0.8186,-0.8189,-0.8224,-0.823,-0.8249,-0.8217,-0.8313,-0.8315,-0.8318,-0.8335,-0.834,-0.8344,0,0,0,0,0,-0.807,-0.8099,-0.8097,-0.8104,-0.8142,-0.8171,-0.8176,-0.818,-0.8168,-0.8183,-0.8192,-0.8185,-0.8244,-0.8228,-0.8234,-0.8254,-0.8312,-0.8315,-0.8317,-0.8333,-0.8339,-0.8344,0,0,0,0,0,0,-0.8081,-0.8102,-0.8099,-0.8135,-0.8152,-0.817,-0.8188,-0.8185,-0.8205,-0.8202,-0.8206,-0.821,-0.8244,-0.8252,-0.8234,-0.8293,-0.8276,-0.828,-0.8286,-0.8291,-0.8295,-0.8292,-0.822,0,0,0,0,0,-0.8088,-0.811,-0.8127,-0.8157,-0.8166,-0.8176,-0.8189,-0.819,-0.8207,-0.8214,-0.8225,-0.8242,-0.8264,-0.8278,-0.8299,-0.8337,-0.8342,-0.8354,-0.8359,-0.8362,-0.8366,-0.8388,-0.8395,-0.8328,-0.8328,-0.8328,0,0,-0.8101,-0.8115,-0.8129,-0.816,-0.8173,-0.8196,-0.8181,-0.8206,-0.8224,-0.8217,-0.8249,-0.8259,-0.8277,-0.8313,-0.833,-0.8322,-0.8385,-0.8366,-0.8368,-0.837,-0.8392,-0.8398,-0.8404,-0.833,-0.833,-0.833,0,0,-0.8138,-0.8151,-0.8178,-0.8192,-0.8212,-0.8219,-0.8226,-0.8245,-0.8251,-0.8284,-0.828,-0.8301,-0.8339,-0.8353,-0.8365,-0.841,-0.8406,-0.8417,-0.8439,-0.8461,-0.8466,-0.8471,-0.8488,-0.8494,-0.8421,-0.8421,-0.8421,0,-0.8152,-0.8187,-0.8192,-0.8218,-0.8232,-0.8229,-0.8257,-0.827,-0.8296,-0.8306,-0.8297,-0.8346,-0.8358,-0.8398,-0.841,-0.8419,-0.8428,-0.8414,-0.8465,-0.847,-0.8474,-0.8491,-0.8497,-0.8422,-0.8422,-0.8422,-0.8422,0,-0.8204,-0.8229,-0.8248,-0.8275,-0.8292,-0.8318,-0.8328,-0.8344,-0.8345,-0.8353,-0.8387,-0.8402,-0.8427,-0.8437,-0.8437,-0.8478,-0.8472,-0.8464,-0.8447,-0.8482,-0.8497,-0.8504,-0.8424,-0.8423,-0.8423,-0.8423,0,0,-0.8246,-0.8277,-0.8284,-0.8297,-0.8321,-0.834,-0.8368,-0.8393,-0.8408,-0.8426,-0.845,-0.8483,-0.8477,-0.8491,-0.8493,-0.8512,-0.8549,-0.8502,-0.8503,-0.8511,-0.8596,-0.8602,-0.8609,-0.8547,-0.8548,-0.8549,-0.8595,0,-0.8285,-0.8334,-0.8341,-0.8384,-0.8408,-0.8407,-0.8431,-0.8449,-0.8458,-0.8479,-0.8489,-0.8513,-0.8502,-0.8511,-0.853,-0.8541,-0.8566,-0.8537,-0.8569,-0.857,-0.8564,-0.8617,-0.8623,-0.8666,-0.8601,-0.8602,-0.8603,0,-0.8337,-0.8359,-0.8405,-0.8428,-0.8438,-0.846,-0.8485,-0.8505,-0.8526,-0.8531,-0.8548,-0.8549,-0.8578,-0.8561,-0.8602,-0.8582,-0.8596,-0.8604,-0.8605,-0.8608,-0.8588,-0.8622,-0.868,-0.8686,-0.8612,-0.8611,-0.8611,0,-0.8364,-0.8405,-0.8439,-0.845,-0.8477,-0.8492,-0.8504,-0.8524,-0.8539,-0.8561,-0.8572,-0.8596,-0.861,-0.863,-0.8637,-0.8624,-0.8679,-0.8661,-0.8684,-0.8684,-0.8695,-0.8694,-0.8756,-0.8704,-0.8704,-0.8704,-0.8704,0,-0.8407,-0.8436,-0.8452,-0.8472,-0.8505,-0.8512,-0.8544,-0.8556,-0.8574,-0.8597,-0.8597,-0.8619,-0.8628,-0.8651,-0.8658,-0.8692,-0.8698,-0.8703,-0.8704,-0.8703,-0.8703,-0.8712,-0.8709,-0.8705,-0.8705,-0.8705,-0.8704,0,-0.8442,-0.8454,-0.8491,-0.8514,-0.8521,-0.8544,-0.8564,-0.8584,-0.8594,-0.8624,-0.8631,-0.8646,-0.8674,-0.8685,-0.8718,-0.8722,-0.8762,-0.8761,-0.8755,-0.8756,-0.8778,-0.8776,-0.8848,-0.8859,-0.8799,-0.88,-0.88,0,-0.8469,-0.8491,-0.8518,-0.8534,-0.8547,-0.8572,-0.8589,-0.8598,-0.8615,-0.8642,-0.866,-0.8688,-0.8711,-0.8756,-0.877,-0.8796,-0.8796,-0.8819,-0.8799,-0.8798,-0.8797,-0.8796,-0.8799,-0.8823,-0.8823,-0.8824,-0.8824,0,-0.8515,-0.8521,-0.8545,-0.8572,-0.8592,-0.8614,-0.8634,-0.8648,-0.866,-0.868,-0.8709,-0.8727,-0.8763,-0.8791,-0.8819,-0.8831,-0.883,-0.8831,-0.8837,-0.8836,-0.8833,-0.8836,-0.8766,-0.8829,-0.8828,-0.8828,-0.8828,-0.8827,-0.8547,-0.8568,-0.8591,-0.8618,-0.8635,-0.8655,-0.8676,-0.869,-0.8715,-0.8745,-0.8749,-0.8781,-0.8803,-0.884,-0.8854,-0.888,-0.8873,-0.8883,-0.8885,-0.8887,-0.889,-0.8829,-0.8884,-0.8884,-0.8884,-0.8884,-0.8884,0,-0.8594,-0.861,-0.8635,-0.8665,-0.8687,-0.8686,-0.8709,-0.8728,-0.8756,-0.8777,-0.8801,-0.8836,-0.8864,-0.8881,-0.891,-0.8927,-0.8927,-0.8934,-0.8933,-0.8936,-0.8893,-0.8885,-0.8934,-0.8934,-0.8934,-0.8934,-0.8934,-0.8934,-0.8621,-0.8657,-0.8665,-0.871,-0.8724,-0.8756,-0.877,-0.8789,-0.8806,-0.8846,-0.8869,-0.8881,-0.8901,-0.8932,-0.8958,-0.8963,-0.8973,-0.8981,-0.8985,-0.8944,-0.8939,-0.8934,-0.8926,-0.8983,-0.8983,-0.9026,-0.9027,-0.9027]}]]